Home   Weather   Barrow   Past weeks

Flag for USA Past Weather in Barrow, Alaska, USA — Yesterday and Last 2 Weeks

Now
7 °F

Passing clouds.


Feels Like: -6 °F
Forecast: -1 / 14 °F
Wind: 8 mph from Northeast

Location: Post Rogers Memorial Airport

Current Time: Apr 24, 2017 at 1:57:32 am

Latest Report: Apr 24, 2017 at 1:36 am


Visibility: 8 mi

Pressure: 30.08 "Hg

Humidity: 83%

Dew Point: 3 °F

Location of BarrowLocation

Past Weather in Barrow — Graph

°F

Barrow Temperature Yesterday

Maximum temperature yesterday: 19 °F (at 4:53 pm)
Minimum temperature yesterday: -2 °F (at 6:04 am)
Average temperature yesterday: 8 °F

High & Low Weather Summary for the Past Weeks

 TemperatureHumidityPressure
High20 °F (Apr 11, 10:53 pm)96% (Apr 23, 10:00 am)30.61 "Hg (Apr 23, 10:00 am)
Low-9 °F (Apr 20, 6:53 am)60% (Apr 18, 7:53 pm)29.94 "Hg (Apr 8, 11:53 pm)
Average9 °F79%30.39 "Hg
* Reported Apr 8 11:53 pm — Apr 23 11:53 pm, Barrow, Weather by CustomWeather, © 2017

Note: Actual official high and low records may vary slightly from our data, if they occured in-between our weather recording intervals... More about our weather records

Advertising

Barrow Weather History for the Previous 24 Hours

Scroll right to see more
 ConditionsComfort  
Time TempWeatherWind HumidityBarometerVisibility
11:53 pm
Sun, Apr 23
11 °FClear.8 mph81%30.09 "Hg10 mi
10:53 pm12 °FSunny.8 mph80%30.09 "Hg10 mi
9:53 pm15 °FSunny.9 mph77%30.09 "Hg10 mi
8:53 pm17 °FSunny.9 mph74%30.09 "Hg10 mi
7:53 pm18 °FSunny.7 mph74%30.09 "Hg10 mi
6:53 pm18 °FSunny.12 mph77%30.09 "Hg10 mi
5:53 pm19 °FSunny.10 mph74%30.09 "Hg10 mi
4:53 pm19 °FPassing clouds.10 mph77%30.09 "Hg10 mi
3:53 pm18 °FPassing clouds.8 mph80%30.10 "Hg10 mi
3:35 pm18 °FPassing clouds.8 mph77%30.10 "Hg10 mi
2:53 pm18 °FSunny.6 mph77%30.11 "Hg10 mi
2:29 pm18 °FPassing clouds.7 mph77%30.11 "Hg7 mi
1:53 pm17 °FSunny.7 mph76%30.11 "Hg10 mi
12:53 pm16 °FSunny.7 mph80%30.12 "Hg9 mi
12:24 pm14 °FIce fog.7 mph84%30.11 "Hg4 mi
11:53 am12 °FSunny.7 mph80%30.12 "Hg4 mi
10:53 am5 °FIce fog.5 mph91%30.12 "Hg1 mi
10:37 am5 °FIce fog.5 mph87%30.12 "Hg0 mi
10:00 am4 °FIce fog.3 mph96%30.12 "Hg1 mi
8:53 am2 °FIce fog.5 mph92%30.13 "Hg0 mi
8:38 am3 °FIce fog.6 mph87%30.13 "Hg0 mi
7:53 am2 °FIce fog.5 mph83%30.14 "Hg1 mi
7:37 am0 °FIce fog.5 mph83%30.13 "Hg0 mi
7:01 am-2 °FIce fog.5 mph83%30.13 "Hg0 mi
6:21 am-2 °FIce fog.6 mph86%30.13 "Hg0 mi
6:04 am-2 °FIce fog.6 mph86%30.13 "Hg0 mi
4:53 am1 °FIce fog.7 mph83%30.15 "Hg0 mi
3:53 am1 °FLow clouds.6 mph79%30.16 "Hg1 mi
3:09 am1 °FIce fog.6 mph83%30.16 "Hg1 mi
2:53 am1 °FIce fog.5 mph87%30.17 "Hg1 mi
2:16 am3 °FIce fog.5 mph87%30.17 "Hg0 mi
2:08 am4 °FIce fog.3 mph84%30.18 "Hg0 mi
1:23 am2 °FIce fog.3 mph88%30.18 "Hg0 mi
Weather by CustomWeather, © 2017

See weather overviewHow to use our weather pages